Weather History for KLND - June, 2014

Change the Weather History Date:

Tuesday, June 10, 2014

  Actual Average Record
Temperature  
Mean Temperature 71 °F 61 °F  
Max Temperature 87 °F 75 °F 94 °F (1918)
Min Temperature 54 °F 47 °F 34 °F (2002)
Degree Days  
Heating Degree Days 0 5  
Month to date heating degree days 45 65  
Since 1 June heating degree days 45 65  
Since 1 July heating degree days 7629 7687  
Cooling Degree Days 6 1  
Month to date cooling degree days 9 10  
Year to date cooling degree days 27 15  
Since 1 June cooling degree days 9 10  
Growing Degree Days 22 (Base 50)    
Moisture  
Dew Point 31 °F    
Average Humidity 32    
Maximum Humidity 55    
Minimum Humidity 8    
Precipitation  
Precipitation 0.00 in 0.05 in 1.38 in (1969)
Month to date precipitation 0.10 0.58  
Year to date precipitation 4.29 6.80  
Snow  
Snow 0.00 in 0.00 in - ()
Month to date snowfall 0.0 0.1  
Since 1 June snowfall 0.0 0.1  
Since 1 July snowfall 75.7 91.4  
Snow Depth 0.00 in    
Sea Level Pressure  
Sea Level Pressure 29.71 in    
Wind  
Wind Speed 12 mph (WSW)    
Max Wind Speed 38 mph    
Max Gust Speed 50 mph    
Visibility 10 miles    
Events      
T = Trace of Precipitation, MM = Missing Value Source: NWS Daily Summary

Daily Weather History Graph

Daily Weather History Graph

Search for Another Location

Airport or City:

Trip Planner

Search our weather history database for the weather conditions in past years. The results will help you decide how hot, cold, wet, or windy it might be!

Date:

Astronomy

Jun. 10, 2014 Rise Set
Actual Time 5:36 AM MDT 8:52 PM MDT
Civil Twilight 5:01 AM MDT 9:27 PM MDT
Nautical Twilight 4:16 AM MDT 10:13 PM MDT
Astronomical Twilight 3:20 AM MDT 11:08 PM MDT
Moon 6:18 PM MDT (6/10) 3:48 AM MDT (6/10)
Length of Visible Light 16h 26m
Length of Day
15h 16m
Waxing Gibbous, 92% of the Moon is Illuminated
Jun 10
Waxing Gibbous
Jun 12
Full
Jun 19
Last Quarter
Jun 27
New
Jul 5
First Quarter

Hourly Weather History & Observations

Time (MDT) Temp. Dew Point Humidity Pressure Visibility Wind Dir Wind Speed Gust Speed Precip Events Conditions
12:53 AM 62.1 °F 30.0 °F 30% 29.76 in 10.0 mi WSW 10.4 mph - N/A   Clear
1:53 AM 62.6 °F 30.2 °F 30% 29.94 in 10.0 mi SW 13.8 mph - N/A   Clear
2:53 AM 64.0 °F 30.0 °F 28% 29.72 in 10.0 mi WSW 11.5 mph - N/A   Clear
3:53 AM 63.0 °F 30.0 °F 29% 29.71 in 10.0 mi SW 15.0 mph - N/A   Clear
4:53 AM 63.0 °F 28.9 °F 28% 29.71 in 10.0 mi SW 13.8 mph - N/A   Clear
5:53 AM 57.2 °F 30.2 °F 36% 29.93 in 10.0 mi SW 9.2 mph - N/A   Clear
6:53 AM 64.9 °F 30.0 °F 27% 29.72 in 10.0 mi SW 8.1 mph - N/A   Clear
7:53 AM 60.1 °F 35.1 °F 39% 29.74 in 10.0 mi NNW 6.9 mph - N/A   Clear
8:53 AM 66.2 °F 35.6 °F 32% 29.92 in 10.0 mi Calm Calm - N/A   Clear
9:53 AM 70.0 °F 36.0 °F 29% 29.72 in 10.0 mi NNW 9.2 mph - N/A   Clear
10:53 AM 73.0 °F 37.0 °F 27% 29.69 in 10.0 mi Variable 6.9 mph - N/A   Clear
11:53 AM 75.0 °F 37.0 °F 25% 29.67 in 10.0 mi Variable 4.6 mph - N/A   Clear
12:53 PM 82.9 °F 27.0 °F 13% 29.60 in 10.0 mi South 13.8 mph 20.7 mph N/A   Clear
2:53 PM 82.4 °F 24.8 °F 12% 29.77 in 10.0 mi West 17.3 mph 26.5 mph N/A   Clear
3:11 PM 84.0 °F 26.1 °F 12% 29.75 in 10.0 mi SW 17.3 mph 35.7 mph N/A   Clear
3:37 PM 87.1 °F 21.9 °F 9% 29.74 in 10.0 mi West 21.9 mph 35.7 mph N/A   Clear
3:53 PM 84.0 °F 16.0 °F 8% 29.52 in 9.0 mi West 29.9 mph 46.0 mph N/A   Clear
4:53 PM 84.0 °F 28.0 °F 13% 29.55 in 10.0 mi WNW 19.6 mph 29.9 mph N/A   Clear
5:15 PM 81.0 °F 30.0 °F 16% 29.78 in 10.0 mi WSW 12.7 mph 28.8 mph N/A   Clear
5:53 PM 82.9 °F 27.0 °F 13% 29.56 in 10.0 mi WNW 19.6 mph 24.2 mph N/A   Partly Cloudy
6:53 PM 80.1 °F 25.0 °F 13% 29.56 in 10.0 mi West 16.1 mph 26.5 mph N/A   Clear
7:53 PM 77.0 °F 24.1 °F 14% 29.60 in 10.0 mi WNW 11.5 mph - N/A   Clear
8:53 PM 66.2 °F 39.2 °F 37% 29.83 in 10.0 mi ENE 11.5 mph 18.4 mph N/A   Clear
9:53 PM 60.1 °F 41.0 °F 49% 29.67 in 10.0 mi SSE 8.1 mph - N/A   Clear
10:53 PM 57.0 °F 41.0 °F 55% 29.68 in 10.0 mi NE 6.9 mph - N/A   Clear
11:53 PM 55.9 °F 39.9 °F 55% 29.68 in 10.0 mi West 6.9 mph - N/A   Clear